• In Denmark
  • List of Countries
  • For 7 days
  • Water Temperature
  • Satellite Maps
  • Weather Map
  • Weather Widgets
  • user-avatar
    Login

    Hourly Weather Mostar

    Today, 16 October, Tuesday

    Time Temperature Precipitation Wind Pressure Humidity
    00:00 +18°C° 0 mm 2 mps 758 mmHg 64%
    01:00 +18°C° 0 mm 2 mps 758 mmHg 66%
    02:00 +18°C° 0 mm 2 mps 758 mmHg 67%
    03:00 +18°C° 0 mm 2 mps 758 mmHg 67%
    04:00 +17°C° 0 mm 2 mps 758 mmHg 67%
    05:00 +18°C° 0 mm 2 mps 758 mmHg 67%
    06:00 +18°C° 0 mm 2 mps 758 mmHg 67%
    07:00 +19°C° 0 mm 2 mps 758 mmHg 66%
    08:00 +21°C° 0 mm 2 mps 758 mmHg 60%
    09:00 +23°C° 0 mm 2 mps 758 mmHg 55%
    10:00 +25°C° 0 mm 1 mps 758 mmHg 49%
    11:00 +26°C° 0 mm 2 mps 758 mmHg 48%
    12:00 +26°C° 0 mm 2 mps 758 mmHg 47%
    13:00 +27°C° 0 mm 1 mps 758 mmHg 46%
    14:00 +26°C° 0 mm 1 mps 758 mmHg 50%
    15:00 +26°C° 0 mm 1 mps 757 mmHg 53%
    16:00 +25°C° 0 mm 1 mps 757 mmHg 56%
    17:00 +24°C° 0 mm 1 mps 757 mmHg 60%
    18:00 +22°C° 0 mm 1 mps 758 mmHg 64%
    19:00 +21°C° 0 mm 1 mps 758 mmHg 68%
    20:00 +20°C° 0 mm 1 mps 758 mmHg 69%
    21:00 +20°C° 0 mm 1 mps 758 mmHg 70%
    22:00 +20°C° 0 mm 1 mps 758 mmHg 71%
    23:00 +20°C° 0 mm 1 mps 758 mmHg 71%

    Tomorrow, 17 October, Wednesday

    Time Temperature Precipitation Wind Pressure Humidity
    00:00 +18°C° 0 mm 2 mps 758 mmHg 72%
    01:00 +18°C° 0 mm 2 mps 758 mmHg 72%
    02:00 +18°C° 0 mm 2 mps 757 mmHg 73%
    03:00 +18°C° 0 mm 2 mps 757 mmHg 73%
    04:00 +18°C° 0 mm 2 mps 757 mmHg 73%
    05:00 +18°C° 0 mm 2 mps 757 mmHg 73%
    06:00 +18°C° 0 mm 2 mps 757 mmHg 72%
    07:00 +18°C° 0 mm 2 mps 757 mmHg 72%
    08:00 +21°C° 0 mm 1 mps 757 mmHg 64%
    09:00 +23°C° 0 mm 1 mps 757 mmHg 56%
    10:00 +26°C° 0 mm 1 mps 757 mmHg 49%
    11:00 +26°C° 0 mm 1 mps 756 mmHg 47%
    12:00 +27°C° 0 mm 1 mps 756 mmHg 46%
    13:00 +27°C° 0 mm 1 mps 756 mmHg 44%
    14:00 +26°C° 0 mm 1 mps 755 mmHg 48%
    15:00 +26°C° 0 mm 1 mps 755 mmHg 52%
    16:00 +25°C° 0 mm 1 mps 755 mmHg 56%
    17:00 +23°C° 0 mm 1 mps 755 mmHg 61%
    18:00 +22°C° 0 mm 1 mps 755 mmHg 66%
    19:00 +20°C° 0 mm 1 mps 755 mmHg 70%
    20:00 +20°C° 0 mm 1 mps 755 mmHg 71%
    21:00 +20°C° 0 mm 1 mps 756 mmHg 71%
    22:00 +19°C° 0 mm 1 mps 756 mmHg 71%
    23:00 +19°C° 0 mm 1 mps 756 mmHg 71%

    Day after tomorrow, 18 October, Thursday

    Time Temperature Precipitation Wind Pressure Humidity
    00:00 +19°C° 0 mm 1 mps 755 mmHg 71%
    01:00 +19°C° 0 mm 1 mps 755 mmHg 71%
    02:00 +19°C° 0 mm 1 mps 755 mmHg 71%
    03:00 +17°C° 0 mm 2 mps 755 mmHg 71%
    04:00 +17°C° 0 mm 2 mps 755 mmHg 71%
    05:00 +17°C° 0 mm 2 mps 755 mmHg 70%
    06:00 +18°C° 0 mm 2 mps 755 mmHg 70%
    07:00 +18°C° 0 mm 2 mps 755 mmHg 69%
    08:00 +21°C° 0 mm 1 mps 755 mmHg 62%
    09:00 +23°C° 0 mm 1 mps 755 mmHg 55%
    10:00 +25°C° 0 mm 1 mps 755 mmHg 48%
    11:00 +26°C° 0 mm 1 mps 755 mmHg 47%
    12:00 +26°C° 0 mm 1 mps 755 mmHg 45%
    13:00 +27°C° 0 mm 1 mps 754 mmHg 44%
    14:00 +26°C° 0 mm 1 mps 754 mmHg 48%
    15:00 +25°C° 0 mm 1 mps 754 mmHg 52%
    16:00 +25°C° 0 mm 1 mps 754 mmHg 57%
    17:00 +23°C° 0 mm 1 mps 754 mmHg 61%
    18:00 +22°C° 0 mm 1 mps 755 mmHg 66%
    19:00 +20°C° 0 mm 1 mps 755 mmHg 71%
    20:00 +20°C° 0 mm 1 mps 755 mmHg 71%
    21:00 +19°C° 0 mm 1 mps 756 mmHg 72%
    22:00 +19°C° 0 mm 1 mps 756 mmHg 72%
    23:00 +19°C° 0 mm 1 mps 756 mmHg 72%

    19 October, Friday

    Time Temperature Precipitation Wind Pressure Humidity
    00:00 +18°C° 0 mm 2 mps 756 mmHg 72%
    01:00 +17°C° 0 mm 2 mps 756 mmHg 71%
    02:00 +17°C° 0 mm 2 mps 756 mmHg 71%
    03:00 +18°C° 0 mm 1 mps 756 mmHg 72%
    04:00 +18°C° 0 mm 1 mps 756 mmHg 72%
    05:00 +17°C° 0 mm 2 mps 756 mmHg 71%
    06:00 +17°C° 0 mm 2 mps 756 mmHg 71%
    07:00 +17°C° 0 mm 2 mps 756 mmHg 70%
    08:00 +19°C° 0 mm 2 mps 756 mmHg 63%
    09:00 +22°C° 0 mm 1 mps 756 mmHg 56%
    10:00 +25°C° 0 mm 1 mps 756 mmHg 49%
    11:00 +25°C° 0 mm 1 mps 756 mmHg 48%
    12:00 +26°C° 0 mm 1 mps 756 mmHg 47%
    13:00 +27°C° 0 mm 2 mps 756 mmHg 46%
    14:00 +26°C° 0 mm 2 mps 756 mmHg 50%
    15:00 +25°C° 0 mm 2 mps 756 mmHg 54%
    16:00 +25°C° 0 mm 2 mps 756 mmHg 58%
    17:00 +23°C° 0 mm 2 mps 756 mmHg 63%
    18:00 +21°C° 0 mm 2 mps 757 mmHg 68%
    19:00 +19°C° 0 mm 3 mps 757 mmHg 73%
    20:00 +19°C° 0 mm 3 mps 757 mmHg 73%
    21:00 +18°C° 0 mm 3 mps 757 mmHg 74%
    22:00 +18°C° 0 mm 2 mps 758 mmHg 74%
    23:00 +17°C° 0 mm 2 mps 758 mmHg 74%

    20 October, Saturday

    Time Temperature Precipitation Wind Pressure Humidity
    00:00 +17°C° 0 mm 2 mps 758 mmHg 75%
    01:00 +17°C° 0 mm 3 mps 758 mmHg 75%
    02:00 +16°C° 0 mm 3 mps 758 mmHg 76%
    03:00 +16°C° 0 mm 3 mps 758 mmHg 77%
    04:00 +16°C° 0 mm 3 mps 758 mmHg 77%
    05:00 +16°C° 0 mm 3 mps 758 mmHg 77%
    06:00 +16°C° 0 mm 3 mps 758 mmHg 76%
    07:00 +16°C° 0 mm 3 mps 758 mmHg 76%
    08:00 +18°C° 0 mm 3 mps 758 mmHg 67%
    09:00 +20°C° 0 mm 2 mps 759 mmHg 59%
    10:00 +23°C° 0 mm 2 mps 759 mmHg 50%
    11:00 +24°C° 0 mm 2 mps 758 mmHg 47%
    12:00 +25°C° 0 mm 2 mps 758 mmHg 44%
    13:00 +26°C° 0 mm 2 mps 758 mmHg 41%
    14:00 +25°C° 0 mm 2 mps 758 mmHg 45%
    15:00 +24°C° 0 mm 3 mps 758 mmHg 48%
    16:00 +24°C° 0 mm 3 mps 758 mmHg 51%
    17:00 +21°C° 0 mm 3 mps 758 mmHg 56%
    18:00 +19°C° 0 mm 3 mps 759 mmHg 61%
    19:00 +18°C° 0 mm 3 mps 759 mmHg 65%
    20:00 +17°C° 0 mm 3 mps 759 mmHg 68%
    21:00 +16°C° 0 mm 3 mps 759 mmHg 71%
    22:00 +15°C° 0 mm 4 mps 760 mmHg 73%
    23:00 +15°C° 0 mm 4 mps 759 mmHg 75%

    21 October, Sunday

    Time Temperature Precipitation Wind Pressure Humidity
    00:00 +14°C° 0 mm 4 mps 759 mmHg 76%
    01:00 +14°C° 0 mm 4 mps 759 mmHg 78%
    02:00 +13°C° 0 mm 4 mps 759 mmHg 79%
    03:00 +13°C° 0 mm 4 mps 759 mmHg 79%
    04:00 +13°C° 0 mm 4 mps 759 mmHg 80%
    05:00 +13°C° 0 mm 4 mps 759 mmHg 80%
    06:00 +13°C° 0 mm 3 mps 759 mmHg 79%
    07:00 +13°C° 0 mm 3 mps 759 mmHg 79%
    08:00 +16°C° 0 mm 3 mps 759 mmHg 71%
    09:00 +18°C° 0 mm 3 mps 759 mmHg 62%
    10:00 +20°C° 0 mm 3 mps 759 mmHg 53%
    11:00 +21°C° 0 mm 3 mps 758 mmHg 50%
    12:00 +23°C° 0 mm 2 mps 758 mmHg 46%
    13:00 +23°C° 0 mm 2 mps 758 mmHg 43%
    14:00 +23°C° 0 mm 2 mps 758 mmHg 46%
    15:00 +21°C° 0 mm 3 mps 757 mmHg 50%
    16:00 +20°C° 0 mm 3 mps 757 mmHg 53%
    17:00 +19°C° 0 mm 3 mps 757 mmHg 57%
    18:00 +17°C° 0 mm 3 mps 757 mmHg 62%
    19:00 +14°C° 0 mm 4 mps 757 mmHg 67%
    20:00 +14°C° 0 mm 4 mps 757 mmHg 69%
    21:00 +13°C° 0 mm 4 mps 757 mmHg 71%
    22:00 +13°C° 0 mm 4 mps 757 mmHg 73%
    23:00 +13°C° 0 mm 4 mps 757 mmHg 73%
    Show more